Content
SEND FEEDBACK

Daily
Averages
Monthly
Summary
Mexico

SAN MARTINIANO, QUINTANA ROO


Home > North America > Mexico > Quintana Roo
Elevation: 49 feet     Latitude: 20 47N     Longitude: 087 16W

WEATHER
 
SELECT A DAY
Number of Records: 196,421;   Date Range: 2/21/06 - 7/26/14
 
SHARE

PRINT THIS DATA

[ ← Previous Day ]
WEATHER ALMANAC - JUNE 18, 2014
[ Next Day → ]
[ °C ]   °F
Weather ElementAverageHighLow
Temperature78.4 °F91.4 °F (2:35 pm)71.6 °F (3:15 am)
Dewpoint28.4 °F77 °F (8:35 am) (7:00 pm)
Humidity61.5 %100 % (12:55 am)41 % (2:35 pm)
Barometer30.13 in30.17 in (10:35 am)30.09 in (3:35 pm)
Wind Speed3.6 mph25.3 mph (4:35 pm)
Wind Gust34.5 mph (4:55 pm)
Weather ElementAverage
Visibility9.1 mi
Wind DirectionENE (51.4 °)

Weather ElementTotal
Precipitation---
Cooling Degree Days16.5 (Base 65)
Growing Degree Days31.5 (Base 50)
Averaged from 71 records on June 18, 2014
WEATHER CONDITIONS BREAKOUT
WIND DIRECTION BREAKOUT
WEATHER BY HOUR - JUNE 18, 2014
[ °C ]   °F
Local TimeTemperatureDewpointHumidityBarometerVisibilityWind DirectionWind SpeedGust SpeedPrecipitationEventsConditions
12:35 AM77.0 °F75.2 °F94 %30.16 in10.0 miCalmClear
12:55 AM75.2 °F75.2 °F100 %30.16 in10.0 miCalmClear
1:15 AM75.2 °F0.0 °F30.16 in10.0 miCalmClear
1:35 AM75.2 °F0.0 °F30.15 in10.0 miCalmClear
1:55 AM73.4 °F0.0 °F30.15 in10.0 miCalmClear
2:15 AM73.4 °F0.0 °F30.14 in10.0 miCalmClear
2:35 AM73.4 °F0.0 °F30.14 in7.0 miCalmClear
2:55 AM73.4 °F0.0 °F30.13 in10.0 miSE (140°)3.5 mphClear
3:15 AM71.6 °F0.0 °F30.12 in10.0 miCalmClear
3:35 AM73.4 °F0.0 °F30.12 in10.0 miCalmClear
3:55 AM71.6 °F0.0 °F30.11 in7.0 miCalmClear
4:15 AM71.6 °F0.0 °F30.11 in4.0 miCalmHaze
4:35 AM71.6 °F0.0 °F30.11 in5.0 miCalmHaze
4:55 AM71.6 °F0.0 °F30.11 in10.0 miCalmClear
5:15 AM71.6 °F0.0 °F30.11 in3.0 miCalmClear
5:35 AM71.6 °F0.0 °F30.11 in7.0 miCalmClear
5:55 AM71.6 °F0.0 °F30.12 in4.0 miCalmHaze
6:15 AM71.6 °F0.0 °F30.12 in5.0 miCalmHaze
6:35 AM71.6 °F0.0 °F30.12 in7.0 miCalmClear
6:55 AM71.6 °F0.0 °F30.13 in4.0 miCalmHaze
7:15 AM71.6 °F0.0 °F30.14 in7.0 miCalmClear
7:35 AM73.4 °F0.0 °F30.14 in10.0 miCalmClear
7:55 AM75.2 °F0.0 °F30.14 in10.0 miENE (60°)3.5 mphClear
8:15 AM77.0 °F0.0 °F30.14 in10.0 miNE (40°)4.6 mphClear
8:35 AM78.8 °F77.0 °F94 %30.14 in10.0 miEast (90°)3.5 mphClear
8:55 AM80.6 °F75.2 °F84 %30.15 in10.0 miEast (80°)3.5 mphClear
9:15 AM82.4 °F73.4 °F74 %30.15 in10.0 miENE (70°)4.6 mphClear
9:35 AM82.4 °F73.4 °F74 %30.16 in10.0 miESE (120°)4.6 mphClear
9:55 AM82.4 °F73.4 °F74 %30.16 in10.0 miEast (90°)5.8 mphScattered Clouds
10:15 AM84.2 °F71.6 °F66 %30.16 in10.0 miEast (100°)5.8 mphMostly Cloudy
10:35 AM84.2 °F71.6 °F66 %30.17 in10.0 miEast (80°)3.5 mphScattered Clouds
10:55 AM84.2 °F71.6 °F66 %30.16 in10.0 miESE (110°)4.6 mphScattered Clouds
11:15 AM86.0 °F69.8 °F58 %30.16 in10.0 miEast (100°)4.6 mphScattered Clouds
11:35 AM87.8 °F69.8 °F55 %30.16 in10.0 miESE (120°)3.5 mphScattered Clouds
11:55 AM87.8 °F68.0 °F52 %30.15 in10.0 miNNE (30°)5.8 mphMostly Cloudy
12:15 PM86.0 °F68.0 °F55 %30.15 in10.0 miEast (80°)8.1 mphMostly Cloudy
12:35 PM87.8 °F66.2 °F49 %30.14 in10.0 miNE (40°)4.6 mphMostly Cloudy
12:55 PM87.8 °F68.0 °F52 %30.14 in10.0 miEast (100°)3.5 mphMostly Cloudy
1:15 PM89.6 °F68.0 °F49 %30.13 in10.0 miNE (50°)5.8 mphMostly Cloudy
1:35 PM89.6 °F64.4 °F43 %30.12 in10.0 miNNE (30°)8.1 mphScattered Clouds
1:55 PM89.6 °F66.2 °F46 %30.11 in10.0 miNE (40°)4.6 mphClear
2:15 PM89.6 °F66.2 °F46 %30.11 in10.0 miCalmScattered Clouds
2:35 PM91.4 °F64.4 °F41 %30.10 in10.0 miNE (50°)9.2 mphScattered Clouds
2:55 PM89.6 °F64.4 °F43 %30.11 in10.0 miENE (60°)5.8 mphMostly Cloudy
3:15 PM89.6 °F64.4 °F43 %30.10 in10.0 miEast (80°)3.5 mphMostly Cloudy
3:35 PM91.4 °F66.2 °F43 %30.09 in10.0 miNE (40°)8.1 mphClear
3:55 PM91.4 °F64.4 °F41 %30.09 in10.0 miENE (70°)10.4 mphScattered Clouds
4:15 PM91.4 °F66.2 °F43 %30.09 in10.0 miENE (60°)9.2 mph16.1 mphMostly Cloudy
4:35 PM84.2 °F68.0 °F58 %30.12 in10.0 miESE (120°)25.3 mph31.1 mphOvercast
4:55 PM78.8 °F69.8 °F74 %30.13 in10.0 miENE (70°)15.0 mph34.5 mphOvercast
5:15 PM75.2 °F75.2 °F100 %30.15 in5.0 miEast (90°)13.8 mph20.7 mphRainHeavy Rain
5:35 PM73.4 °F0.0 °F30.15 in4.0 miEast (100°)5.8 mphRainLight Rain
5:55 PM73.4 °F0.0 °F30.14 in7.0 miEast (90°)6.9 mphRainLight Rain
6:15 PM73.4 °F0.0 °F30.13 in10.0 miEast (100°)4.6 mphLight Drizzle
6:35 PM73.4 °F0.0 °F30.11 in10.0 miSE (130°)5.8 mphRainLight Rain
6:55 PM75.2 °F0.0 °F30.12 in10.0 miSSE (150°)4.6 mphClear
7:15 PM75.2 °F0.0 °F30.13 in10.0 miSE (140°)5.8 mphClear
7:35 PM75.2 °F0.0 °F30.14 in10.0 miEast (90°)4.6 mphClear
7:55 PM75.2 °F0.0 °F30.14 in10.0 miEast (80°)4.6 mphClear
8:15 PM75.2 °F0.0 °F30.14 in10.0 miSSE (160°)4.6 mphClear
8:35 PM75.2 °F0.0 °F30.14 in10.0 miSE (140°)4.6 mphClear
8:55 PM75.2 °F0.0 °F30.14 in10.0 miCalmClear
9:15 PM75.2 °F0.0 °F30.13 in10.0 miSE (140°)3.5 mphClear
9:35 PM75.2 °F0.0 °F30.14 in10.0 miCalmClear
9:55 PM75.2 °F0.0 °F30.14 in10.0 miCalmClear
10:15 PM75.2 °F0.0 °F30.14 in10.0 miCalmClear
10:35 PM73.4 °F0.0 °F30.15 in10.0 miESE (120°)3.5 mphClear
10:55 PM73.4 °F0.0 °F30.15 in10.0 miCalmClear
11:15 PM73.4 °F0.0 °F30.15 in10.0 miCalmClear
11:35 PM73.4 °F0.0 °F30.16 in10.0 miCalmClear
11:55 PM73.4 °F0.0 °F30.15 in10.0 miCalmClear
Hourly data recorded from KPCM, located miles away from San Martiniano, Quintana Roo







STORIES FROM OUR PARTNERS